Weather History for Brunswick, GA

Change the Weather History Date:

Saturday, July 19, 2014

  Actual Average Record
Temperature  
Mean Temperature 79 °F -  
Max Temperature 87 °F 91 °F 103 °F (1986)
Min Temperature 71 °F 72 °F 66 °F (1990)
Cooling Degree Days 14    
Growing Degree Days 29 (Base 50)    
Moisture  
Dew Point 72 °F    
Average Humidity 80    
Maximum Humidity 94    
Minimum Humidity 58    
Precipitation  
Precipitation 0.00 in - - ()
Sea Level Pressure  
Sea Level Pressure 30.08 in    
Wind  
Wind Speed 0 mph (North)    
Max Wind Speed 0 mph    
Max Gust Speed -    
Visibility 9 miles    
Events Thunderstorm    
Averages and records for this station are not official NWS values.
T = Trace of Precipitation, MM = Missing Value Source: NWS Daily Summary

Daily Weather History Graph

Daily Weather History Graph

Search for Another Location

Airport:

Trip Planner

Search our weather history database for the weather conditions in past years. The results will help you decide how hot, cold, wet, or windy it might be!

Date:

Astronomy

Jul. 19, 2014 Rise Set
Actual Time 6:34 AM EDT 8:29 PM EDT
Civil Twilight 6:07 AM EDT 8:56 PM EDT
Nautical Twilight 5:34 AM EDT 9:29 PM EDT
Astronomical Twilight 4:59 AM EDT 10:04 PM EDT
Moon 12:57 AM EDT (7/19) 2:18 PM EDT (7/19)
Length of Visible Light 14h 49m
Length of Day
13h 55m
Last Quarter, 44% of the Moon is Illuminated
Jul 19
Last Quarter
Jul 26
New
Aug 3
First Quarter
Aug 10
Full
Aug 17
Last Quarter

Hourly Weather History & Observations

Time (EDT) Temp. Heat Index Dew Point Humidity Pressure Visibility Wind Dir Wind Speed Gust Speed Precip Events Conditions
12:30 AM 73.4 °F - 69.8 °F 88% 30.11 in 10.0 mi Calm Calm - N/A   Clear
12:50 AM 73.4 °F - 69.8 °F 88% 30.11 in 10.0 mi Calm Calm - N/A   Clear
1:10 AM 73.4 °F - 69.8 °F 88% 30.11 in 10.0 mi Calm Calm - N/A   Clear
1:30 AM 73.4 °F - 69.8 °F 88% 30.11 in 10.0 mi Calm Calm - N/A   Clear
1:50 AM 73.4 °F - 69.8 °F 88% 30.10 in 7.0 mi Calm Calm - N/A   Clear
2:10 AM 73.4 °F - 69.8 °F 88% 30.08 in 10.0 mi Calm Calm - N/A   Clear
2:30 AM 71.6 °F - 69.8 °F 94% 30.09 in 7.0 mi Calm Calm - N/A   Clear
2:50 AM 73.4 °F - 69.8 °F 88% 30.08 in 10.0 mi Calm Calm - N/A   Clear
3:10 AM 73.4 °F - 69.8 °F 88% 30.07 in 7.0 mi Calm Calm - N/A   Clear
3:30 AM 73.4 °F - 69.8 °F 88% 30.06 in 4.0 mi Calm Calm - N/A   Clear
3:50 AM 71.6 °F - 69.8 °F 94% 30.06 in 3.0 mi Calm Calm - N/A   Clear
4:10 AM 71.6 °F - 69.8 °F 94% 30.05 in 5.0 mi Calm Calm - N/A   Clear
4:30 AM 71.6 °F - 69.8 °F 94% 30.05 in 5.0 mi Calm Calm - N/A   Clear
4:50 AM 71.6 °F - 69.8 °F 94% 30.04 in 10.0 mi Calm Calm - N/A   Clear
5:10 AM 73.4 °F - 69.8 °F 88% 30.03 in 10.0 mi Calm Calm - N/A   Clear
5:30 AM 73.4 °F - 71.6 °F 94% 30.05 in 10.0 mi Calm Calm - N/A   Clear
5:50 AM 73.4 °F - 71.6 °F 94% 30.05 in 10.0 mi Calm Calm - N/A   Clear
6:10 AM 73.4 °F - 71.6 °F 94% 30.06 in 10.0 mi Calm Calm - N/A   Scattered Clouds
6:30 AM 73.4 °F - 71.6 °F 94% 30.06 in 7.0 mi Calm Calm - N/A   Clear
7:10 AM 73.4 °F - 71.6 °F 94% 30.07 in 7.0 mi Calm Calm - N/A   Clear
7:30 AM 77.0 °F - 73.4 °F 89% 30.07 in 7.0 mi Calm Calm - N/A   Scattered Clouds
7:50 AM 77.0 °F - 73.4 °F 89% 30.08 in 7.0 mi Calm Calm - N/A   Scattered Clouds
8:10 AM 78.8 °F - 75.2 °F 89% 30.08 in 10.0 mi Calm Calm - N/A   Clear
8:30 AM 80.6 °F 86.2 °F 75.2 °F 84% 30.09 in 10.0 mi Calm Calm - N/A   Clear
8:50 AM 80.6 °F 86.2 °F 75.2 °F 84% 30.10 in 10.0 mi Calm Calm - N/A   Clear
9:10 AM 80.6 °F 87.1 °F 77.0 °F 89% 30.10 in 10.0 mi Calm Calm - N/A   Clear
9:30 AM 80.6 °F 87.1 °F 77.0 °F 89% 30.10 in 10.0 mi Calm Calm - N/A   Clear
9:50 AM 82.4 °F 89.5 °F 75.2 °F 79% 30.10 in 10.0 mi Calm Calm - N/A   Clear
10:10 AM 82.4 °F 89.5 °F 75.2 °F 79% 30.09 in 10.0 mi Calm Calm - N/A   Clear
10:30 AM 82.4 °F 88.2 °F 73.4 °F 74% 30.09 in 10.0 mi Calm Calm - N/A   Scattered Clouds
10:50 AM 82.4 °F 88.2 °F 73.4 °F 74% 30.10 in 10.0 mi Calm Calm - N/A   Scattered Clouds
11:10 AM 82.4 °F 88.2 °F 73.4 °F 74% 30.10 in 10.0 mi Calm Calm - N/A   Scattered Clouds
11:30 AM 84.2 °F 90.9 °F 73.4 °F 70% 30.10 in 10.0 mi Calm Calm - N/A   Scattered Clouds
11:50 AM 86.0 °F 93.4 °F 73.4 °F 66% 30.09 in 10.0 mi Calm Calm - N/A   Mostly Cloudy
12:10 PM 86.0 °F 93.4 °F 73.4 °F 66% 30.10 in 10.0 mi Calm Calm - N/A   Mostly Cloudy
12:30 PM 86.0 °F 93.4 °F 73.4 °F 66% 30.09 in 10.0 mi Calm Calm - N/A   Scattered Clouds
1:10 PM 86.0 °F 93.4 °F 73.4 °F 66% 30.09 in 10.0 mi Calm Calm - N/A   Mostly Cloudy
1:30 PM 86.0 °F 91.8 °F 71.6 °F 62% 30.09 in 10.0 mi Calm Calm - N/A   Mostly Cloudy
1:50 PM 87.8 °F 93.8 °F 71.6 °F 58% 30.08 in 10.0 mi Calm Calm - N/A   Mostly Cloudy
2:10 PM 86.0 °F 91.8 °F 71.6 °F 62% 30.07 in 10.0 mi Calm Calm - N/A   Overcast
2:30 PM 87.8 °F 93.8 °F 71.6 °F 58% 30.07 in 10.0 mi Calm Calm - N/A   Mostly Cloudy
2:50 PM 87.8 °F 93.8 °F 71.6 °F 58% 30.07 in 10.0 mi Calm Calm - N/A   Mostly Cloudy
3:10 PM 87.8 °F 93.8 °F 71.6 °F 58% 30.07 in 10.0 mi Calm Calm - N/A   Mostly Cloudy
3:30 PM 86.0 °F 93.4 °F 73.4 °F 66% 30.07 in 10.0 mi Calm Calm - N/A   Mostly Cloudy
3:50 PM 86.0 °F 93.4 °F 73.4 °F 66% 30.06 in 10.0 mi Calm Calm - N/A   Scattered Clouds
4:10 PM 86.0 °F 91.8 °F 71.6 °F 62% 30.06 in 10.0 mi Calm Calm - N/A   Clear
4:30 PM 86.0 °F 91.8 °F 71.6 °F 62% 30.06 in 10.0 mi Calm Calm - N/A   Scattered Clouds
4:50 PM 84.2 °F 90.9 °F 73.4 °F 70% 30.07 in 10.0 mi Calm Calm - N/A Thunderstorm Mostly Cloudy
5:10 PM 80.6 °F 85.4 °F 73.4 °F 79% 30.06 in 10.0 mi Calm Calm - N/A   Overcast
5:30 PM 78.8 °F - 73.4 °F 83% 30.06 in 10.0 mi Calm Calm - N/A Thunderstorm Thunderstorm
5:50 PM 80.6 °F 84.6 °F 71.6 °F 74% 30.06 in 10.0 mi Calm Calm - N/A   Mostly Cloudy
6:10 PM 80.6 °F 84.6 °F 71.6 °F 74% 30.06 in 10.0 mi Calm Calm - N/A Thunderstorm Scattered Clouds
6:30 PM 80.6 °F 84.6 °F 71.6 °F 74% 30.06 in 10.0 mi Calm Calm - N/A   Scattered Clouds
6:50 PM 80.6 °F 84.6 °F 71.6 °F 74% 30.07 in 10.0 mi Calm Calm - N/A Thunderstorm Scattered Clouds
7:10 PM 80.6 °F 84.6 °F 71.6 °F 74% 30.07 in 10.0 mi Calm Calm - N/A Thunderstorm Mostly Cloudy
7:30 PM 80.6 °F 85.4 °F 73.4 °F 79% 30.08 in 10.0 mi Calm Calm - N/A Thunderstorm Mostly Cloudy
7:50 PM 80.6 °F 84.6 °F 71.6 °F 74% 30.08 in 10.0 mi Calm Calm - N/A   Mostly Cloudy
8:10 PM 78.8 °F - 71.6 °F 78% 30.08 in 10.0 mi Calm Calm - N/A   Mostly Cloudy
8:30 PM 77.0 °F - 71.6 °F 83% 30.08 in 10.0 mi Calm Calm - N/A   Clear
8:50 PM 77.0 °F - 71.6 °F 83% 30.09 in 10.0 mi Calm Calm - N/A   Scattered Clouds
9:10 PM 77.0 °F - 71.6 °F 83% 30.08 in 10.0 mi Calm Calm - N/A   Scattered Clouds
9:30 PM 77.0 °F - 71.6 °F 83% 30.08 in 10.0 mi Calm Calm - N/A   Clear
9:50 PM 75.2 °F - 71.6 °F 89% 30.08 in 10.0 mi Calm Calm - N/A   Clear
10:50 PM 75.2 °F - 71.6 °F 89% 30.07 in 7.0 mi Calm Calm - N/A   Clear
11:10 PM 75.2 °F - 71.6 °F 89% 30.07 in 5.0 mi Calm Calm - N/A   Clear
11:30 PM 77.0 °F - 73.4 °F 89% 30.07 in 10.0 mi Calm Calm - N/A   Clear
11:50 PM 78.8 °F - 73.4 °F 83% 30.06 in 10.0 mi Calm Calm - N/A   Clear